Regional Weather Roundup
Issued by NWS Goodland, KS

Home | Current Version | Previous Version | Graphics & Text | Print | Product List | Glossary On
Versions: 1 2 3 4 5 6 7 8 9 10 11 12 13 14 15 16 17 18 19 20 21 22 23 24 25 26 27 28 29 30 31 32 33 34 35 36 37 38 39 40 41 42 43 44 45 46 47 48 49 50
000
ASUS43 KGLD 061408
RWRGLD

GOODLAND FORECAST AREA HOURLY WEATHER ROUNDUP
NATIONAL WEATHER SERVICE GOODLAND KS
700 AM MST FRI MAR 06 2015

...OFFICIAL OBSERVATIONS...

CITY           SKY/WX    TMP DP  RH WIND       PRES   REMARKS
GOODLAND KS    CLEAR     30  20  66 W9        30.26S
HILL CITY KS   CLEAR     27  18  69 W8        30.28R
IMPERIAL NEB     N/A     28  17  63 W9        30.24R
MCCOOK NEB     CLEAR     25  18  74 W9        30.25S
AKRON CO       CLEAR     26  19  74 W13       30.25R WCI  15
BURLINGTON CO  CLEAR     27  18  69 SW9       30.26S
LIMON CO       CLEAR      8   2  76 N8        30.28R
$$

...UNOFFICIAL OBSERVATIONS...

CITY           SKY/WX    TMP DP  RH WIND       PRES   REMARKS
COLBY KS       CLEAR     28  27  93 SW7       30.27S
GOVE KS          N/A     26  32 100 MISG        N/A
NORTON KS      CLEAR     27  19  74 W8        30.26R
SHARON SPRINGS   N/A     28  24  84 CALM        N/A
TRIBUNE KS     CLEAR     30  27  86 W9        30.31R
YUMA CO          N/A     21  16  81 CALM        N/A
$$


USA.gov is the U.S. government's official web portal to all federal, state and local government web resources and services.